ハートレー-ドリンクウォーター彗星

C/1995 Q2 ( Hartley-Drinkwater )

English version
Home page
Updated on August 14, 1996

---------------------------------------------------------------------

・ プロフィール

発見日 1995年8月29日
発見光度 14等
発見者 Malcolm Hartley (Siding Spring), Michael J. Drinkwater (Siding Spring)

・ 軌道要素

  by Kenji Muraoka,
  from 109 observations  1995 Aug. 29  to  1995 Oct. 13,
  mean residual is +/- 0.77 arc seconds.

      Epoch  =  1995 July 22.0  TT       JDT = 2449920.5
          T  =  1995 Aug.  2.72566       +/- 0.01173 (m.e.) TT
       Peri. =  313.99916                +/- 0.00506
       Node  =  300.75061                +/- 0.00354   (2000.0)
       Incl. =  168.00750                +/- 0.00165
          q  =    1.8891437              +/- 0.0000941 AU
          e  =    0.9665260              +/- 0.0009516
        1/a  =   +0.0177192              +/- 0.0005037 1/AU

・ 星図

・ 1995年 6月 2日〜1995年11月29日

・ 光度変化

        m1 = 11.0 + 5 logΔ + 15.0  log r

---------------------------------------------------------------------

軌道要素は村岡健治氏の計算によるものです。
星図は StellaNavigator Ver.2.0 for Windows (アストロアーツ 編著 / アスキー出版局刊) で作成したものです。
光度グラフはComet for Windowsで作成したものです。

---------------------------------------------------------------------

Copyright(C) Seiichi Yoshida (comet@aerith.net). All rights reserved.